| time (UTC) | temp C | wind direction | speed KPH | gust KPH | rain 1hr cm | rain 24hr cm | rain mn cm | humidity % | barometer mb |
| 20260831001525 | 22 | 347 | 1.6 | 12.9 | 0.00 | 0.00 | 0.00 | 25 | 1015.0 |
| 20260831000023 | 22 | 301 | 8.0 | 14.5 | 0.00 | 0.00 | 0.00 | 25 | 1015.2 |
| 20260830234520 | 22 | 237 | 9.7 | 22.5 | 0.00 | 0.00 | 0.00 | 25 | 1015.2 |
| 20260830233018 | 22 | 251 | 11.3 | 17.7 | 0.00 | 0.00 | 0.00 | 26 | 1015.4 |
| 20260830231520 | 22 | 301 | 8.0 | 19.3 | 0.00 | 0.00 | 0.00 | 26 | 1015.6 |
| 20260830230015 | 22 | 291 | 14.5 | 24.1 | 0.00 | 0.00 | 0.00 | 26 | 1015.6 |
| 20260830224515 | 22 | 268 | 14.5 | 22.5 | 0.00 | 0.00 | 0.00 | 25 | 1015.7 |
| 20260830223013 | 22 | 270 | 8.0 | 22.5 | 0.00 | 0.00 | 0.00 | 25 | 1015.7 |
| 20260830221510 | 22 | 279 | 11.3 | 17.7 | 0.00 | 0.00 | 0.00 | 25 | 1015.8 |
| 20260830220008 | 21 | 284 | 8.0 | 20.9 | 0.00 | 0.00 | 0.00 | 26 | 1016.0 |
| 20260830214505 | 21 | 227 | 9.7 | 25.7 | 0.00 | 0.00 | 0.00 | 27 | 1016.4 |
| 20260830213002 | 21 | 272 | 4.8 | 19.3 | 0.00 | 0.00 | 0.00 | 28 | 1016.4 |
| 20260830211502 | 21 | 260 | 11.3 | 22.5 | 0.00 | 0.00 | 0.00 | 29 | 1016.5 |
| 20260830210059 | 21 | 270 | 11.3 | 27.4 | 0.00 | 0.00 | 0.00 | 30 | 1016.7 |
| 20260830204559 | 20 | 256 | 19.3 | 27.4 | 0.00 | 0.00 | 0.00 | 30 | 1016.8 |
| 20260830203055 | 20 | 265 | 9.7 | 24.1 | 0.00 | 0.00 | 0.00 | 31 | 1016.9 |
| 20260830201557 | 20 | 278 | 12.9 | 22.5 | 0.00 | 0.00 | 0.00 | 31 | 1017.0 |
| 20260830200051 | 20 | 270 | 17.7 | 27.4 | 0.00 | 0.00 | 0.00 | 33 | 1017.1 |
| 20260830194549 | 19 | 241 | 14.5 | 30.6 | 0.00 | 0.00 | 0.00 | 34 | 1017.3 |
| 20260830193045 | 19 | 211 | 11.3 | 25.7 | 0.00 | 0.00 | 0.00 | 35 | 1017.4 |
| 20260830191543 | 18 | 220 | 8.0 | 20.9 | 0.00 | 0.00 | 0.00 | 36 | 1017.6 |
| 20260830190042 | 18 | 249 | 11.3 | 22.5 | 0.00 | 0.00 | 0.00 | 36 | 1017.6 |
| 20260830184542 | 18 | 240 | 8.0 | 17.7 | 0.00 | 0.00 | 0.00 | 37 | 1018.1 |
| 20260830183036 | 17 | 257 | 12.9 | 20.9 | 0.00 | 0.00 | 0.00 | 38 | 1018.1 |
| 20260830181539 | 17 | 246 | 14.5 | 30.6 | 0.00 | 0.00 | 0.00 | 40 | 1018.2 |
| 20260830180033 | 16 | 235 | 11.3 | 25.7 | 0.00 | 0.00 | 0.00 | 42 | 1018.2 |
| 20260830174529 | 16 | 249 | 14.5 | 22.5 | 0.00 | 0.00 | 0.00 | 43 | 1018.2 |
| 20260830173027 | 16 | 247 | 14.5 | 22.5 | 0.00 | 0.00 | 0.00 | 44 | 1018.2 |
| 20260830171525 | 15 | 279 | 11.3 | 22.5 | 0.00 | 0.00 | 0.00 | 47 | 1018.3 |
| 20260830170023 | 15 | 258 | 12.9 | 22.5 | 0.00 | 0.00 | 0.00 | 48 | 1018.4 |
| 20260830164522 | 15 | 264 | 17.7 | 24.1 | 0.00 | 0.00 | 0.00 | 48 | 1018.5 |
| 20260830163121 | 15 | 281 | 16.1 | 24.1 | 0.00 | 0.00 | 0.00 | 50 | 1018.5 |
| 20260830161518 | 14 | 239 | 14.5 | 20.9 | 0.00 | 0.00 | 0.00 | 52 | 1018.5 |
| 20260830160020 | 14 | 265 | 9.7 | 22.5 | 0.00 | 0.00 | 0.00 | 54 | 1018.5 |
| 20260830154513 | 13 | 229 | 11.3 | 20.9 | 0.00 | 0.00 | 0.00 | 55 | 1018.5 |
| 20260830153009 | 13 | 151 | 8.0 | 14.5 | 0.00 | 0.00 | 0.00 | 56 | 1018.5 |
| 20260830151506 | 12 | 154 | 8.0 | 16.1 | 0.00 | 0.00 | 0.00 | 58 | 1018.4 |
| 20260830150004 | 11 | 109 | 6.4 | 14.5 | 0.00 | 0.00 | 0.00 | 61 | 1018.4 |
| 20260830144558 | 11 | 138 | 6.4 | 11.3 | 0.00 | 0.00 | 0.00 | 64 | 1018.5 |
| 20260830143055 | 10 | 154 | 4.8 | 8.0 | 0.00 | 0.00 | 0.00 | 66 | 1018.4 |
| 20260830141552 | 10 | 102 | 3.2 | 9.7 | 0.00 | 0.00 | 0.00 | 69 | 1018.4 |
| 20260830140049 | 8 | 119 | 4.8 | 8.0 | 0.00 | 0.00 | 0.00 | 72 | 1018.2 |
| 20260830134547 | -17 | 0.0 | 0.0 | 0.00 | 0.00 | 0.00 | 1018.1 | ||
| 20260830133046 | -17 | 0.0 | 0.0 | 0.00 | 0.00 | 0.00 | 1018.2 | ||
| 20260830131538 | -17 | 0.0 | 0.0 | 0.00 | 0.00 | 0.00 | 1018.1 | ||
| 20260830130033 | -17 | 0.0 | 0.0 | 0.00 | 0.00 | 0.00 | 1018.2 | ||
| 20260830124529 | -17 | 0.0 | 0.0 | 0.00 | 0.00 | 0.00 | 1018.1 | ||
| 20260830123025 | -17 | 0.0 | 0.0 | 0.00 | 0.00 | 0.00 | 1018.2 | ||
| 20260830121522 | 7 | 166 | 3.2 | 8.0 | 0.00 | 0.00 | 0.00 | 75 | 1018.1 |
| 20260830120023 | 7 | 129 | 3.2 | 8.0 | 0.00 | 0.00 | 0.00 | 73 | 1017.9 |
| 20260830114521 | 7 | 145 | 4.8 | 8.0 | 0.00 | 0.00 | 0.00 | 75 | 1018.0 |
| 20260830113019 | 7 | 121 | 6.4 | 9.7 | 0.00 | 0.00 | 0.00 | 76 | 1017.8 |
| 20260830111519 | 7 | 124 | 6.4 | 9.7 | 0.00 | 0.00 | 0.00 | 76 | 1017.8 |
| 20260830110019 | 7 | 132 | 8.0 | 11.3 | 0.00 | 0.00 | 0.00 | 76 | 1017.8 |
| 20260830104516 | 7 | 76 | 8.0 | 11.3 | 0.00 | 0.00 | 0.00 | 78 | 1017.8 |
| 20260830103012 | 7 | 86 | 6.4 | 11.3 | 0.00 | 0.00 | 0.00 | 75 | 1017.8 |
| 20260830101533 | 8 | 133 | 6.4 | 9.7 | 0.00 | 0.00 | 0.00 | 75 | 1017.8 |
| 20260830100010 | 7 | 109 | 4.8 | 9.7 | 0.00 | 0.00 | 0.00 | 76 | 1017.7 |
| 20260830094509 | 7 | 130 | 6.4 | 9.7 | 0.00 | 0.00 | 0.00 | 77 | 1017.7 |
| 20260830093009 | 8 | 114 | 6.4 | 9.7 | 0.00 | 0.00 | 0.00 | 75 | 1017.6 |
| 20260830091506 | 8 | 132 | 4.8 | 8.0 | 0.00 | 0.00 | 0.00 | 76 | 1017.5 |
| 20260830090013 | 8 | 124 | 4.8 | 8.0 | 0.00 | 0.00 | 0.00 | 76 | 1017.6 |
| 20260830084513 | 7 | 133 | 4.8 | 8.0 | 0.00 | 0.00 | 0.00 | 77 | 1017.6 |
| 20260830083005 | 8 | 125 | 4.8 | 9.7 | 0.00 | 0.00 | 0.00 | 75 | 1017.7 |
| 20260830081559 | 8 | 117 | 3.2 | 6.4 | 0.00 | 0.00 | 0.00 | 74 | 1017.7 |
| 20260830080100 | 8 | 124 | 1.6 | 6.4 | 0.00 | 0.00 | 0.00 | 74 | 1017.7 |
| 20260830074614 | 8 | 146 | 3.2 | 6.4 | 0.00 | 0.00 | 0.00 | 73 | 1017.5 |
| 20260830073051 | 9 | 204 | 4.8 | 9.7 | 0.00 | 0.00 | 0.00 | 72 | 1017.5 |
| 20260830071556 | 9 | 164 | 3.2 | 12.9 | 0.00 | 0.00 | 0.00 | 72 | 1017.5 |
| 20260830070048 | 9 | 192 | 4.8 | 9.7 | 0.00 | 0.00 | 0.00 | 72 | 1017.6 |
| 20260830064544 | 10 | 204 | 6.4 | 11.3 | 0.00 | 0.00 | 0.00 | 71 | 1017.5 |
| 20260830063042 | 10 | 204 | 4.8 | 11.3 | 0.00 | 0.00 | 0.00 | 70 | 1017.5 |
| 20260830061541 | 10 | 205 | 6.4 | 11.3 | 0.00 | 0.00 | 0.00 | 70 | 1017.4 |
| 20260830060040 | 10 | 224 | 6.4 | 11.3 | 0.00 | 0.00 | 0.00 | 69 | 1017.3 |
| 20260830054539 | 10 | 222 | 4.8 | 11.3 | 0.00 | 0.00 | 0.00 | 68 | 1017.5 |
| 20260830053038 | 10 | 226 | 8.0 | 12.9 | 0.00 | 0.00 | 0.00 | 67 | 1017.3 |
| 20260830051537 | 10 | 216 | 8.0 | 14.5 | 0.00 | 0.00 | 0.00 | 65 | 1017.3 |
| 20260830050043 | 10 | 246 | 8.0 | 16.1 | 0.00 | 0.00 | 0.00 | 65 | 1017.3 |
| 20260830044542 | 11 | 251 | 11.3 | 17.7 | 0.00 | 0.00 | 0.00 | 65 | 1017.2 |
| 20260830043033 | 11 | 230 | 9.7 | 17.7 | 0.00 | 0.00 | 0.00 | 63 | 1017.0 |
| 20260830041543 | 11 | 241 | 8.0 | 14.5 | 0.00 | 0.00 | 0.00 | 62 | 1016.9 |
| 20260830040028 | 12 | 249 | 11.3 | 24.1 | 0.00 | 0.00 | 0.00 | 60 | 1016.6 |
| 20260830034537 | 12 | 258 | 14.5 | 27.4 | 0.00 | 0.00 | 0.00 | 59 | 1016.5 |
| 20260830033025 | 12 | 256 | 14.5 | 22.5 | 0.00 | 0.00 | 0.00 | 59 | 1016.3 |
| 20260830031522 | 12 | 262 | 11.3 | 20.9 | 0.00 | 0.00 | 0.00 | 57 | 1016.0 |
| 20260830030023 | 13 | 251 | 12.9 | 22.5 | 0.00 | 0.00 | 0.00 | 55 | 1015.9 |
| 20260830024523 | 13 | 260 | 16.1 | 24.1 | 0.00 | 0.00 | 0.00 | 53 | 1015.8 |
| 20260830023018 | 14 | 270 | 22.5 | 30.6 | 0.00 | 0.00 | 0.00 | 53 | 1015.6 |
| 20260830021517 | 15 | 253 | 20.9 | 30.6 | 0.00 | 0.00 | 0.00 | 53 | 1015.4 |
| 20260830020019 | 15 | 258 | 22.5 | 32.2 | 0.00 | 0.00 | 0.00 | 51 | 1015.3 |
| 20260830014530 | 15 | 278 | 19.3 | 32.2 | 0.00 | 0.00 | 0.00 | 52 | 1015.5 |
| 20260830013033 | 15 | 267 | 20.9 | 32.2 | 0.00 | 0.00 | 0.00 | 49 | 1015.3 |
| 20260830011513 | 15 | 278 | 25.7 | 37.0 | 0.00 | 0.00 | 0.00 | 48 | 1015.1 |
| 20260830010026 | 16 | 270 | 25.7 | 38.6 | 0.00 | 0.00 | 0.00 | 44 | 1015.0 |
| 20260830004510 | 16 | 258 | 30.6 | 45.1 | 0.00 | 0.00 | 0.00 | 42 | 1014.8 |
| 20260830003010 | 17 | 275 | 24.1 | 38.6 | 0.00 | 0.00 | 0.00 | 42 | 1015.0 |